Aeroporto :
LOGIN :

Iscrizione | Disclaimer

   EN    FR    IT 

 










Sommario :    VFR   VFR Marginale   IFR   IFR Intensivo   IFR Molto Intensivo
Visibilità : 
Base nubi : 
>= 8 km
>= 3000ft
5 / 8 km
1000 / 3000 ft
1500m / 5 km
500 / 1000 ft
800 / 1500m
200 / 500 ft
< 800m
< 200 ft
Simboli :   Temporali  Nebbia  Neve Forte  Precipitazioni Forti  Vento > 20 kt
SIGMETs :   Varie  Temporali  Ghiacco  Turbolenza  Onda orograficha  Ceneri Vulcaniche






- Altitudine del aeroporto : 49 ft
- Codice IATA : SEN


EGMC - Southend

ULTIMO METAR :
  • 100650Z 04003KT 4000 BR NSC 09/09 Q1026

METARs OBSOLETI :
  • 100620Z 03002KT 3000 BR NSC 06/06 Q1026
  • 100550Z 04003KT 2500 BR NSC 06/06 Q1026
  • 100520Z 03002KT 2500 BR NSC 05/05 Q1026
  • 100450Z 36002KT 2500 BR NSC 05/05 Q1026
  • 100420Z 02002KT 3000 BR NSC 05/05 Q1026

TAF TAF EGMC
Valido dal 10 a 06 ore il 10 a 15 ore UTC


100457Z 1006/1015 07008KT 7000 NSC
TEMPO 1006/1009 3000 BR
BECMG 1008/1011 9999



MetMap, La meteo Aeronautica in un colpo d'occhio ! - Copyright ORBIFLY Dicembre 2007 - Disclaimer

ORBIFLY MET'MAP TEAM :

Programmazione e sviluppo : Alexandra Zaïnal
Concezione : Baudouin d'Aumeries
Aiuto per la programmazione : Marc-Olivier Méhu
Supporto tecnico e logistico : Manuel Goepfert
Aiuto per la traduzione : Arnaldo La Scala

Contatto : metmap@orbifly.com




FONTI E CREDITI :

   NOAA